Location: Gro�sch�nbrunn
(49.5760°N, 11.8868°E)
Time: 09:08:14
(UTC+00:00)

N. Korean satellite - Pass Details

Date: 25 November 2020
Orbit: 453 x 502 km, 97.2° (Epoch: 16 January)

Event Time Altitude Azimuth Distance (km) Brightness Sun altitude
Rises 05:12:41 0° 8° (N) 2,535 10.1 -13.6°
Reaches altitude 10° 05:14:46 10° 3° (N) 1,660 9.1 -13.3°
Maximum altitude 05:18:14 51° 287° (WNW) 619 6.7 -12.8°
Drops below altitude 10° 05:21:43 10° 211° (SSW) 1,673 9.1 -12.2°
Sets 05:23:50 0° 207° (SSW) 2,558 10.1 -11.9°
